Location: Unspecified
(50.7693°N, 0.0000°E)
Time: 02:24:24
(UTC+00:00)

Transit 2A - Pass Details

Date: 27 June 2019
Orbit: 594 x 965 km, 66.7° (Epoch: 17 July)

Event Time Altitude Azimuth Distance (km) Brightness Sun altitude
Rises 04:32:29 0° 311° (NW) 3,582 9.3 4.8°
Reaches altitude 10° 04:35:56 10° 329° (NNW) 2,585 8.8 5.2°
Maximum altitude 04:40:03 19° 13° (NNE) 1,957 8.9 5.8°
Drops below altitude 10° 04:43:57 10° 57° (ENE) 2,418 11.8 6.3°
Sets 04:47:02 0° 76° (ENE) 3,272 11.1 6.8°
